JD,Date,Time,Lat,Long,"xCO2,w","xCO2,a",EqTemp,Pressure,SST(TSG),Sal(TSG),"fCO2w,eq","fCO2w,in situ",fCO2a,dfCO2
92.011,04/01/00,00:16:24,48.425,-130.647,350.35,375.98,8.42,1036.97,8.03,32.67,353.48,347.54,379.28,-31.74
92.014,04/01/00,00:20:50,48.430,-130.666,350.70,375.98,8.36,1036.58,7.97,32.67,353.72,347.85,379.28,-31.44
92.018,04/01/00,00:25:20,48.434,-130.683,350.27,375.98,8.37,1036.71,7.95,32.66,353.33,346.97,379.28,-32.32
92.021,04/01/00,00:29:50,48.438,-130.702,349.26,375.98,8.34,1036.53,7.89,32.66,352.27,345.41,379.28,-33.87
92.032,04/01/00,00:46:21,48.454,-130.766,346.04,375.98,8.31,1036.56,7.87,32.66,349.04,342.49,379.28,-36.79
92.035,04/01/00,00:50:50,48.458,-130.784,347.27,375.98,8.28,1036.39,7.85,32.67,350.22,343.81,379.28,-35.48
92.038,04/01/00,00:55:20,48.462,-130.801,348.50,375.98,8.37,1036.46,7.97,32.67,351.46,345.49,379.28,-33.80
92.042,04/01/00,00:59:50,48.467,-130.819,348.85,375.98,8.32,1036.28,7.92,32.67,351.76,345.72,379.28,-33.56
92.053,04/01/00,01:16:24,48.482,-130.883,344.37,375.66,8.21,1036.19,7.76,32.66,347.25,340.47,378.76,-38.29
92.056,04/01/00,01:20:50,48.486,-130.902,344.99,375.66,8.22,1036.19,7.84,32.66,347.85,342.14,378.76,-36.61
92.059,04/01/00,01:25:20,48.490,-130.919,345.03,375.66,8.23,1036.16,7.79,32.66,347.89,341.29,378.76,-37.46
92.062,04/01/00,01:29:50,48.495,-130.937,344.50,375.66,8.24,1036.19,7.79,32.65,347.37,340.72,378.76,-38.04
92.074,04/01/00,01:46:21,48.510,-131.000,344.80,375.66,8.16,1036.31,7.76,32.65,347.72,341.69,378.76,-37.07
92.077,04/01/00,01:50:50,48.514,-131.019,345.03,375.66,8.15,1036.18,7.74,32.65,347.91,341.75,378.76,-37.00
92.080,04/01/00,01:55:20,48.518,-131.036,345.13,375.66,8.15,1035.67,7.74,32.65,347.84,341.64,378.76,-37.12
92.083,04/01/00,01:59:50,48.523,-131.054,345.62,375.66,8.18,1036.24,7.78,32.64,348.52,342.59,378.76,-36.17
92.095,04/01/00,02:16:24,48.538,-131.118,347.34,375.66,8.10,1036.07,7.70,32.65,350.21,344.12,378.62,-34.50
92.098,04/01/00,02:20:50,48.542,-131.136,348.34,375.66,8.09,1035.99,7.64,32.66,351.21,344.40,378.62,-34.22
92.101,04/01/00,02:25:20,48.546,-131.153,349.17,375.66,8.01,1036.11,7.60,32.65,352.09,345.83,378.62,-32.79
92.104,04/01/00,02:29:50,48.551,-131.171,349.25,375.66,8.06,1035.98,7.67,32.65,352.11,346.18,378.62,-32.44
92.116,04/01/00,02:46:21,48.554,-131.227,347.36,375.66,8.06,1035.79,7.61,32.66,350.16,343.42,378.62,-35.20
92.119,04/01/00,02:50:50,48.542,-131.232,348.63,375.66,8.01,1036.01,7.56,32.65,351.53,344.66,378.62,-33.96
92.122,04/01/00,02:55:20,48.530,-131.233,349.62,375.66,8.04,1035.73,7.57,32.65,352.42,345.24,378.62,-33.38
92.125,04/01/00,02:59:50,48.517,-131.232,350.09,375.66,8.02,1035.66,7.62,32.65,352.86,346.80,378.62,-31.83
92.136,04/01/00,03:16:24,48.491,-131.191,350.13,376.45,8.04,1035.78,7.60,32.66,352.95,346.22,379.53,-33.31
92.139,04/01/00,03:20:50,48.487,-131.172,350.21,376.45,8.01,1036.15,7.58,32.67,353.16,346.58,379.53,-32.95
92.143,04/01/00,03:25:20,48.483,-131.154,348.61,376.45,8.13,1035.95,7.64,32.65,351.47,344.10,379.53,-35.44
92.146,04/01/00,03:29:50,48.478,-131.136,348.45,376.45,8.13,1035.86,7.73,32.65,351.25,345.20,379.53,-34.33
92.157,04/01/00,03:46:21,48.462,-131.069,345.54,376.45,8.17,1035.78,7.71,32.65,348.30,341.43,379.53,-38.11
92.160,04/01/00,03:50:50,48.458,-131.050,344.87,376.45,8.23,1035.76,7.80,32.65,347.60,341.17,379.53,-38.37
92.163,04/01/00,03:55:20,48.454,-131.032,344.23,376.45,8.23,1035.70,7.80,32.65,346.94,340.52,379.53,-39.01
92.167,04/01/00,03:59:50,48.450,-131.013,343.52,376.45,8.23,1035.54,7.74,32.66,346.18,338.92,379.53,-40.62
92.178,04/01/00,04:16:24,48.435,-130.947,344.23,375.79,8.21,1035.51,7.80,32.65,346.87,340.73,378.68,-37.94
92.181,04/01/00,04:20:50,48.431,-130.928,344.40,375.79,8.21,1035.46,7.77,32.65,347.02,340.46,378.68,-38.22
92.184,04/01/00,04:25:20,48.427,-130.911,344.88,375.79,8.23,1035.40,7.81,32.65,347.49,341.18,378.68,-37.50
92.187,04/01/00,04:29:50,48.423,-130.892,345.25,375.79,8.24,1035.67,7.86,32.65,347.94,342.27,378.68,-36.40
92.199,04/01/00,04:46:21,48.408,-130.826,345.23,375.79,8.28,1035.51,7.82,32.65,347.87,340.94,378.68,-37.74
92.202,04/01/00,04:50:50,48.403,-130.808,345.17,375.79,8.25,1035.80,7.83,32.66,347.91,341.59,378.68,-37.09
92.205,04/01/00,04:55:20,48.399,-130.790,345.84,375.79,8.35,1035.79,7.84,32.66,348.58,340.95,378.68,-37.72
92.208,04/01/00,04:59:50,48.395,-130.771,347.62,375.79,8.36,1035.62,7.91,32.67,350.30,343.57,378.68,-35.10
92.220,04/01/00,05:16:24,48.380,-130.706,348.46,375.48,8.40,1036.04,8.02,32.66,351.26,345.51,378.47,-32.96
92.223,04/01/00,05:20:50,48.376,-130.687,347.70,375.48,8.41,1036.11,7.97,32.66,350.53,343.95,378.47,-34.52
92.226,04/01/00,05:25:20,48.372,-130.670,347.46,375.48,8.39,1036.15,7.97,32.66,350.30,343.96,378.47,-34.51
92.229,04/01/00,05:29:50,48.368,-130.651,349.32,375.48,8.40,1036.04,8.02,32.67,352.13,346.37,378.47,-32.10
92.241,04/01/00,05:46:21,48.347,-130.598,348.85,375.48,8.37,1035.89,7.96,32.66,351.61,345.36,378.47,-33.11
92.244,04/01/00,05:50:50,48.335,-130.602,346.99,375.48,8.43,1035.77,8.04,32.65,349.68,343.79,378.47,-34.68
92.247,04/01/00,05:55:20,48.323,-130.606,346.54,375.48,8.50,1035.80,8.02,32.66,349.24,342.10,378.47,-36.37
92.250,04/01/00,05:59:50,48.310,-130.610,346.95,375.48,8.46,1035.67,8.06,32.65,349.60,343.65,378.47,-34.82
92.261,04/01/00,06:16:24,48.282,-130.587,348.17,375.30,8.42,1035.97,8.04,32.66,350.94,345.25,378.13,-32.88
92.264,04/01/00,06:20:50,48.279,-130.567,346.80,375.30,8.38,1035.69,7.95,32.66,349.48,342.98,378.13,-35.15
92.268,04/01/00,06:25:20,48.276,-130.549,345.99,375.30,8.42,1035.58,7.96,32.66,348.62,341.77,378.13,-36.36
92.271,04/01/00,06:29:50,48.273,-130.529,347.64,375.30,8.48,1035.41,8.04,32.65,350.21,343.66,378.13,-34.47
92.282,04/01/00,06:46:21,48.262,-130.461,347.78,375.30,8.47,1035.37,8.06,32.66,350.34,344.18,378.13,-33.95
92.285,04/01/00,06:50:50,48.259,-130.442,346.88,375.30,8.45,1035.35,8.00,32.66,349.44,342.72,378.13,-35.41
92.288,04/01/00,06:55:20,48.253,-130.425,346.76,375.30,8.45,1035.63,8.06,32.65,349.40,343.54,378.13,-34.59
92.292,04/01/00,06:59:50,48.247,-130.408,346.92,375.30,8.39,1035.43,8.00,32.66,349.51,343.72,378.13,-34.41
92.303,04/01/00,07:16:24,48.225,-130.346,347.00,375.05,8.45,1035.24,8.05,32.65,349.51,343.55,377.73,-34.18
92.306,04/01/00,07:20:50,48.218,-130.328,347.26,375.05,8.49,1035.15,8.09,32.66,349.74,343.74,377.73,-33.99
92.309,04/01/00,07:25:20,48.212,-130.312,347.69,375.05,8.46,1035.39,8.07,32.66,350.25,344.43,377.73,-33.30
92.312,04/01/00,07:29:50,48.206,-130.294,347.43,375.05,8.42,1035.25,8.00,32.65,349.96,343.64,377.73,-34.09
92.324,04/01/00,07:46:21,48.184,-130.232,345.86,375.05,8.44,1034.97,7.90,32.63,348.30,340.27,377.73,-37.46
92.327,04/01/00,07:50:50,48.177,-130.215,346.75,375.05,8.47,1034.95,8.04,32.63,349.16,342.72,377.73,-35.01
92.330,04/01/00,07:55:20,48.172,-130.199,347.20,375.05,8.42,1034.77,8.01,32.64,349.56,343.42,377.73,-34.31
92.333,04/01/00,07:59:50,48.165,-130.182,347.57,375.05,8.58,1034.78,8.08,32.64,349.92,342.50,377.73,-35.23
92.345,04/01/00,08:16:24,48.144,-130.120,347.42,374.91,8.49,1034.57,8.03,32.65,349.71,342.74,377.37,-34.63
92.348,04/01/00,08:20:50,48.137,-130.102,348.54,374.91,8.42,1034.56,8.06,32.63,350.83,345.33,377.37,-32.04
92.351,04/01/00,08:25:20,48.131,-130.086,348.54,374.91,8.46,1034.51,8.05,32.64,350.81,344.57,377.37,-32.80
92.354,04/01/00,08:29:50,48.125,-130.069,348.89,374.91,8.48,1034.63,8.09,32.63,351.19,345.28,377.37,-32.09
92.366,04/01/00,08:46:21,48.103,-130.007,347.97,374.91,8.46,1034.45,8.05,32.62,350.22,344.09,377.37,-33.28
92.369,04/01/00,08:50:50,48.097,-129.989,348.46,374.91,8.50,1034.44,8.10,32.62,350.70,344.67,377.37,-32.70
92.372,04/01/00,08:55:20,48.091,-129.973,348.23,374.91,8.50,1034.44,8.06,32.61,350.48,343.90,377.37,-33.47
92.375,04/01/00,08:59:50,48.084,-129.955,348.09,374.91,8.53,1034.26,8.14,32.62,350.26,344.46,377.37,-32.91
92.386,04/01/00,09:16:24,48.062,-129.894,347.33,374.68,8.48,1034.20,7.94,32.62,349.51,341.40,376.91,-35.51
92.389,04/01/00,09:20:50,48.056,-129.876,348.17,374.68,8.56,1034.24,8.12,32.63,350.33,343.75,376.91,-33.17
92.393,04/01/00,09:25:20,48.050,-129.860,349.07,374.68,8.65,1033.93,8.17,32.62,351.12,343.96,376.91,-32.96
92.396,04/01/00,09:29:50,48.042,-129.844,348.92,374.68,8.52,1034.09,8.16,32.60,351.03,345.60,376.91,-31.32
92.407,04/01/00,09:46:21,48.011,-129.792,343.42,374.68,8.61,1033.99,8.23,32.64,345.45,339.85,376.91,-37.06
92.410,04/01/00,09:50:50,48.002,-129.778,342.73,374.68,8.62,1033.96,8.23,32.64,344.74,339.02,376.91,-37.89
92.413,04/01/00,09:55:20,47.994,-129.765,342.27,374.68,8.58,1033.88,8.17,32.64,344.26,338.17,376.91,-38.74
92.417,04/01/00,09:59:50,47.987,-129.753,342.51,374.68,8.56,1034.12,8.16,32.64,344.59,338.71,376.91,-38.20
92.428,04/01/00,10:16:24,48.004,-129.811,342.61,374.50,8.60,1033.92,8.21,32.64,344.61,338.91,376.64,-37.73
92.431,04/01/00,10:20:50,48.009,-129.829,342.75,374.50,8.54,1033.87,8.14,32.64,344.75,338.78,376.64,-37.86
92.434,04/01/00,10:25:20,48.013,-129.846,344.11,374.50,8.58,1033.81,8.20,32.61,346.09,340.39,376.64,-36.25
92.437,04/01/00,10:29:50,48.018,-129.864,345.62,374.50,8.61,1033.90,8.15,32.62,347.64,340.84,376.64,-35.80
92.449,04/01/00,10:46:21,48.037,-129.926,348.27,374.50,8.54,1033.70,8.11,32.62,350.25,343.84,376.64,-32.80
92.452,04/01/00,10:50:50,48.043,-129.944,348.43,374.50,8.52,1033.58,8.13,32.62,350.37,344.45,376.64,-32.19
92.455,04/01/00,10:55:20,48.048,-129.960,348.53,374.50,8.50,1033.60,8.12,32.62,350.48,344.71,376.64,-31.93
92.458,04/01/00,10:59:50,48.053,-129.978,348.37,374.50,8.48,1034.04,8.13,32.62,350.46,345.13,376.64,-31.51
92.470,04/01/00,11:16:24,48.072,-130.039,348.44,374.50,8.52,1033.58,8.11,32.62,350.38,344.27,376.51,-32.24
92.473,04/01/00,11:20:50,48.077,-130.057,348.56,374.50,8.51,1033.50,8.13,32.62,350.47,344.73,376.51,-31.78
92.476,04/01/00,11:25:20,48.082,-130.073,348.46,374.50,8.51,1033.45,8.12,32.62,350.35,344.45,376.51,-32.06
92.479,04/01/00,11:29:50,48.087,-130.090,348.40,374.50,8.50,1033.36,8.13,32.63,350.26,344.64,376.51,-31.87
92.491,04/01/00,11:46:21,48.106,-130.151,349.40,374.50,8.52,1033.50,8.11,32.62,351.32,345.15,376.51,-31.36
92.494,04/01/00,11:50:50,48.111,-130.168,348.89,374.50,8.43,1033.49,7.96,32.63,350.83,343.76,376.51,-32.75
92.497,04/01/00,11:55:20,48.116,-130.184,349.83,374.50,8.45,1033.26,8.14,32.63,351.66,346.98,376.51,-29.53
92.500,04/01/00,11:59:50,48.122,-130.202,349.52,374.50,8.40,1033.23,8.03,32.64,351.36,345.76,376.51,-30.75
92.511,04/01/00,12:16:24,48.140,-130.262,348.17,374.60,8.42,1033.44,7.99,32.65,350.09,343.61,376.59,-32.99
92.514,04/01/00,12:20:50,48.145,-130.280,348.28,374.60,8.48,1033.29,8.09,32.64,350.12,344.25,376.59,-32.34
92.518,04/01/00,12:25:20,48.150,-130.296,348.58,374.60,8.45,1033.27,8.11,32.65,350.42,345.35,376.59,-31.25
92.521,04/01/00,12:29:50,48.155,-130.313,348.23,374.60,8.42,1033.30,8.03,32.64,350.10,344.26,376.59,-32.34
92.532,04/01/00,12:46:21,48.174,-130.374,349.87,374.60,8.46,1033.13,8.06,32.66,351.67,345.69,376.59,-30.91
92.535,04/01/00,12:50:50,48.179,-130.391,350.85,374.60,8.43,1033.09,7.99,32.68,352.66,345.97,376.59,-30.63
92.538,04/01/00,12:55:20,48.184,-130.407,350.69,374.60,8.45,1032.96,8.07,32.66,352.43,346.68,376.59,-29.92
92.542,04/01/00,12:59:50,48.189,-130.425,350.24,374.60,8.43,1033.02,8.03,32.66,352.01,346.03,376.59,-30.56
92.553,04/01/00,13:16:24,48.208,-130.467,348.92,374.30,8.33,1033.08,7.93,32.66,350.73,344.69,376.24,-31.54
92.556,04/01/00,13:20:50,48.196,-130.461,348.08,374.30,8.30,1032.91,7.87,32.66,349.84,343.40,376.24,-32.83
92.559,04/01/00,13:25:20,48.184,-130.455,348.51,374.30,8.41,1033.09,7.96,32.65,350.31,343.49,376.24,-32.75
92.562,04/01/00,13:29:50,48.171,-130.455,349.55,374.30,8.39,1033.08,8.03,32.66,351.34,345.84,376.24,-30.40
92.574,04/01/00,13:46:21,48.186,-130.517,350.24,374.30,8.33,1033.15,7.88,32.66,352.10,345.37,376.24,-30.87
92.577,04/01/00,13:50:50,48.190,-130.535,350.82,374.30,8.37,1033.07,7.94,32.66,352.63,346.18,376.24,-30.06
92.580,04/01/00,13:55:20,48.194,-130.551,351.18,374.30,8.33,1033.18,7.96,32.66,353.04,347.39,376.24,-28.85
92.583,04/01/00,13:59:50,48.198,-130.570,351.02,374.30,8.31,1033.21,7.91,32.66,352.89,346.79,376.24,-29.44
92.595,04/01/00,14:16:24,48.212,-130.633,346.36,374.31,8.19,1032.82,7.80,32.66,348.10,342.28,376.33,-34.04
92.598,04/01/00,14:20:49,48.217,-130.652,344.17,374.31,8.14,1033.06,7.70,32.66,346.00,339.49,376.33,-36.84
92.601,04/01/00,14:25:20,48.221,-130.668,344.05,374.31,8.12,1033.18,7.81,32.64,345.90,341.28,376.33,-35.04
92.604,04/01/00,14:29:50,48.224,-130.687,343.65,374.31,8.12,1033.00,7.70,32.66,345.45,339.19,376.33,-37.14
92.616,04/01/00,14:46:21,48.239,-130.750,345.31,374.31,8.23,1033.07,7.83,32.65,347.12,341.11,376.33,-35.21
92.619,04/01/00,14:50:50,48.243,-130.768,346.18,374.31,8.28,1033.14,7.90,32.66,348.00,342.32,376.33,-34.00
92.622,04/01/00,14:55:20,48.247,-130.785,346.59,374.31,8.24,1033.13,7.89,32.65,348.41,343.16,376.33,-33.17
92.625,04/01/00,14:59:50,48.251,-130.803,345.59,374.31,8.22,1033.11,7.79,32.66,347.43,340.94,376.33,-35.39
92.636,04/01/00,15:16:24,48.266,-130.866,346.71,374.55,8.19,1033.02,7.86,32.63,348.50,343.61,376.38,-32.76
92.639,04/01/00,15:20:50,48.270,-130.884,346.16,374.55,8.23,1032.91,7.72,32.65,347.94,340.34,376.38,-36.04
92.643,04/01/00,15:25:20,48.274,-130.901,346.99,374.55,8.21,1032.78,7.84,32.65,348.71,343.12,376.38,-33.26
92.646,04/01/00,15:29:50,48.278,-130.919,346.52,374.55,8.22,1032.81,7.83,32.63,348.25,342.42,376.38,-33.96
92.657,04/01/00,15:46:21,48.292,-130.982,346.93,374.55,8.22,1032.77,7.79,32.65,348.65,342.26,376.38,-34.11
92.660,04/01/00,15:50:50,48.296,-131.000,345.95,374.55,8.21,1032.67,7.76,32.65,347.65,340.86,376.38,-35.52
92.663,04/01/00,15:55:20,48.300,-131.017,346.08,374.55,8.18,1032.63,7.81,32.64,347.74,342.24,376.38,-34.13
92.667,04/01/00,15:59:50,48.305,-131.035,345.85,374.55,8.22,1032.66,7.81,32.64,347.53,341.40,376.38,-34.98
92.678,04/01/00,16:16:24,48.319,-131.099,347.45,374.94,8.13,1032.65,7.72,32.65,349.15,342.99,376.68,-33.69
92.681,04/01/00,16:20:50,48.323,-131.117,347.29,374.94,8.12,1032.28,7.71,32.65,348.86,342.73,376.68,-33.95
92.684,04/01/00,16:25:20,48.327,-131.134,347.27,374.94,8.15,1032.48,7.77,32.64,348.90,343.13,376.68,-33.55
92.687,04/01/00,16:29:50,48.331,-131.153,347.61,374.94,8.23,1032.74,7.76,32.65,349.34,342.35,376.68,-34.33
92.699,04/01/00,16:46:21,48.346,-131.217,350.18,374.94,8.15,1032.37,7.74,32.65,351.79,345.64,376.68,-31.04
92.702,04/01/00,16:50:50,48.358,-131.223,350.71,374.94,8.15,1032.44,7.74,32.65,352.35,346.15,376.68,-30.53
92.705,04/01/00,16:55:20,48.370,-131.226,350.28,374.94,8.12,1032.29,7.71,32.66,351.88,345.70,376.68,-30.99
92.708,04/01/00,16:59:50,48.383,-131.230,349.40,374.94,8.12,1032.29,7.66,32.65,351.01,344.09,376.68,-32.59
92.720,04/01/00,17:16:24,48.383,-131.178,349.16,374.82,8.11,1032.40,7.70,32.65,350.79,344.56,376.49,-31.92
92.723,04/01/00,17:20:49,48.379,-131.159,347.81,374.82,8.08,1032.08,7.63,32.65,349.34,342.53,376.49,-33.96
92.726,04/01/00,17:25:20,48.376,-131.141,348.04,374.82,8.15,1032.34,7.76,32.65,349.63,343.71,376.49,-32.78
92.729,04/01/00,17:29:50,48.372,-131.122,346.57,374.82,8.03,1032.24,7.75,32.65,348.13,343.92,376.49,-32.57
92.741,04/01/00,17:46:21,48.358,-131.056,344.73,374.82,8.16,1032.12,7.77,32.65,346.23,340.47,376.49,-36.02
92.744,04/01/00,17:50:50,48.354,-131.036,345.15,374.82,8.13,1032.36,7.80,32.65,346.73,341.79,376.49,-34.70
92.747,04/01/00,17:55:20,48.350,-131.019,346.45,374.82,8.14,1032.23,7.79,32.65,347.99,342.78,376.49,-33.70
92.750,04/01/00,17:59:50,48.346,-131.000,346.33,374.82,8.19,1032.20,7.78,32.65,347.86,341.75,376.49,-34.74
92.761,04/01/00,18:16:24,48.332,-130.934,346.30,374.62,8.11,1032.08,7.87,32.64,347.77,344.22,376.30,-32.08
92.764,04/01/00,18:20:50,48.328,-130.915,345.43,374.62,8.24,1032.14,7.74,32.65,346.95,339.43,376.30,-36.87
92.768,04/01/00,18:25:20,48.325,-130.897,346.26,374.62,8.26,1032.29,7.89,32.64,347.80,342.20,376.30,-34.11
92.771,04/01/00,18:29:50,48.321,-130.879,345.77,374.62,8.20,1032.29,7.78,32.66,347.33,341.10,376.30,-35.21
92.782,04/01/00,18:46:21,48.307,-130.813,345.29,374.62,8.16,1032.29,7.85,32.66,346.83,342.14,376.30,-34.16
92.785,04/01/00,18:50:50,48.303,-130.795,345.96,374.62,8.16,1032.30,7.88,32.66,347.50,343.35,376.30,-32.95
92.788,04/01/00,18:55:20,48.300,-130.778,345.53,374.62,8.17,1032.31,7.85,32.66,347.08,342.29,376.30,-34.01
92.792,04/01/00,18:59:50,48.296,-130.760,346.24,374.62,8.28,1032.40,7.89,32.66,347.82,341.99,376.30,-34.31
92.803,04/01/00,19:16:24,48.282,-130.695,348.17,374.57,8.22,1032.04,8.05,32.66,349.60,347.01,376.13,-29.12
92.806,04/01/00,19:20:50,48.278,-130.676,346.83,374.57,8.22,1032.03,7.90,32.66,348.28,343.49,376.13,-32.64
92.809,04/01/00,19:25:20,48.275,-130.659,346.67,374.57,8.29,1032.09,7.92,32.66,348.14,342.65,376.13,-33.48
92.812,04/01/00,19:29:50,48.271,-130.641,346.26,374.57,8.27,1032.09,7.92,32.66,347.73,342.44,376.13,-33.69
92.824,04/01/00,19:46:21,48.257,-130.575,346.04,374.57,8.28,1032.06,7.92,32.65,347.49,342.12,376.13,-34.01
92.827,04/01/00,19:50:50,48.253,-130.557,348.05,374.57,8.37,1032.10,8.05,32.65,349.50,344.71,376.13,-31.42
92.830,04/01/00,19:55:20,48.249,-130.539,348.87,374.57,8.35,1032.05,8.03,32.65,350.30,345.41,376.13,-30.72
92.833,04/01/00,19:59:50,48.245,-130.521,349.23,374.57,8.36,1032.16,8.03,32.66,350.71,345.78,376.13,-30.35
92.845,04/01/00,20:16:24,48.232,-130.455,351.17,-999.99,8.52,1031.91,8.05,32.65,352.56,345.48,-999.99,-999.99
92.848,04/01/00,20:20:49,48.228,-130.436,350.96,-999.99,8.57,1031.90,8.11,32.64,352.34,345.45,-999.99,-999.99
92.851,04/01/00,20:25:20,48.225,-130.419,350.94,-999.99,8.59,1031.89,8.10,32.65,352.32,344.86,-999.99,-999.99
92.854,04/01/00,20:29:50,48.230,-130.402,351.01,-999.99,8.54,1031.67,8.08,32.64,352.30,345.38,-999.99,-999.99
92.866,04/01/00,20:46:21,48.257,-130.445,347.99,-999.99,8.60,1031.73,8.09,32.65,349.30,341.68,-999.99,-999.99
92.869,04/01/00,20:50:50,48.262,-130.463,347.64,-999.99,8.54,1031.65,8.09,32.65,348.92,342.17,-999.99,-999.99
92.872,04/01/00,20:55:20,48.266,-130.480,347.30,-999.99,8.54,1031.74,8.06,32.65,348.61,341.48,-999.99,-999.99
92.875,04/01/00,20:59:50,48.271,-130.498,347.56,-999.99,8.59,1031.79,8.10,32.66,348.89,341.58,-999.99,-999.99
92.886,04/01/00,21:16:24,48.289,-130.563,349.16,-999.99,8.55,1031.71,8.14,32.65,350.45,344.36,-999.99,-999.99
92.889,04/01/00,21:20:50,48.295,-130.581,347.71,-999.99,8.49,1031.79,7.98,32.66,349.07,341.45,-999.99,-999.99
92.893,04/01/00,21:25:20,48.300,-130.598,348.02,-999.99,8.54,1031.74,8.07,32.66,349.34,342.37,-999.99,-999.99
92.896,04/01/00,21:29:50,48.305,-130.617,349.32,-999.99,8.48,1031.61,8.14,32.67,350.58,345.44,-999.99,-999.99
92.907,04/01/00,21:46:21,48.320,-130.683,349.53,-999.99,8.47,1031.61,7.99,32.66,350.82,343.61,-999.99,-999.99
92.910,04/01/00,21:50:50,48.324,-130.701,347.74,-999.99,8.42,1031.64,7.97,32.66,349.04,342.29,-999.99,-999.99
92.913,04/01/00,21:55:20,48.328,-130.719,346.64,-999.99,8.42,1031.51,7.98,32.66,347.89,341.36,-999.99,-999.99
92.917,04/01/00,21:59:50,48.333,-130.738,346.96,-999.99,8.50,1031.33,7.98,32.65,348.16,340.41,-999.99,-999.99
92.928,04/01/00,22:16:24,48.348,-130.803,351.14,374.36,8.48,1031.04,8.06,32.65,352.23,345.91,375.49,-29.59
92.931,04/01/00,22:20:50,48.352,-130.822,351.06,374.36,8.55,1031.12,8.08,32.66,352.17,345.06,375.49,-30.43
92.934,04/01/00,22:25:20,48.356,-130.839,351.86,374.36,8.45,1030.98,8.12,32.67,352.91,347.87,375.49,-27.62
92.937,04/01/00,22:29:50,48.361,-130.858,349.14,374.36,8.37,1030.88,7.91,32.66,350.20,343.24,375.49,-32.25
92.949,04/01/00,22:46:21,48.376,-130.923,347.19,374.36,8.41,1030.88,7.95,32.64,348.23,341.34,375.49,-34.15
92.952,04/01/00,22:50:50,48.380,-130.942,347.29,374.36,8.36,1030.87,7.89,32.65,348.35,341.29,375.49,-34.21
92.955,04/01/00,22:55:20,48.384,-130.960,347.68,374.36,8.37,1030.61,7.87,32.66,348.65,341.14,375.49,-34.36
92.958,04/01/00,22:59:50,48.389,-130.978,347.80,374.36,8.32,1030.71,7.86,32.65,348.81,341.91,375.49,-33.58
92.970,04/01/00,23:16:24,48.404,-131.043,348.00,375.09,8.41,1030.46,7.92,32.64,348.91,341.63,376.18,-34.54
92.973,04/01/00,23:20:49,48.408,-131.062,347.90,375.09,8.38,1030.58,7.83,32.65,348.87,340.69,376.18,-35.49
92.976,04/01/00,23:25:20,48.412,-131.079,347.49,375.09,8.33,1030.64,7.86,32.65,348.47,341.44,376.18,-34.74
92.979,04/01/00,23:29:50,48.416,-131.097,348.61,375.09,8.35,1030.53,7.94,32.66,349.54,343.45,376.18,-32.72
92.991,04/01/00,23:46:21,48.431,-131.161,348.43,375.09,8.25,1030.38,7.76,32.65,349.35,341.94,376.18,-34.24
92.994,04/01/00,23:50:50,48.435,-131.179,349.04,375.09,8.25,1030.64,7.72,32.64,350.06,342.11,376.18,-34.07
92.997,04/01/00,23:55:20,48.439,-131.195,351.40,375.09,8.37,1030.52,7.82,32.65,352.37,344.08,376.18,-32.10
93.000,04/01/00,23:59:50,48.443,-131.214,351.44,375.09,8.21,1030.40,7.75,32.66,352.38,345.37,376.18,-30.81
93.011,04/02/00,00:16:24,48.464,-131.197,352.82,374.85,8.30,1030.42,7.74,32.64,353.77,345.32,375.76,-30.44
93.014,04/02/00,00:20:50,48.475,-131.185,353.19,374.85,8.21,1030.47,7.70,32.65,354.16,346.41,375.76,-29.35
93.018,04/02/00,00:25:20,48.485,-131.173,353.16,374.85,8.23,1030.41,7.80,32.65,354.10,347.63,375.76,-28.13
93.021,04/02/00,00:29:50,48.496,-131.160,352.90,374.85,8.22,1030.18,7.71,32.65,353.77,345.97,375.76,-29.79
93.032,04/02/00,00:46:21,48.538,-131.141,348.17,374.85,8.16,1030.16,7.69,32.65,349.03,342.05,375.76,-33.71
93.035,04/02/00,00:50:50,48.551,-131.145,349.43,374.85,8.29,1030.06,7.76,32.65,350.24,342.34,375.76,-33.42
93.038,04/02/00,00:55:20,48.564,-131.148,352.08,374.85,8.24,1030.11,7.81,32.66,352.91,346.34,375.76,-29.42
93.042,04/02/00,00:59:50,48.577,-131.151,351.94,374.85,8.18,1030.11,7.68,32.66,352.79,345.26,375.76,-30.50
93.053,04/02/00,01:16:24,48.623,-131.163,352.31,374.11,8.59,1029.69,8.21,32.62,352.90,347.18,374.79,-27.60
93.056,04/02/00,01:20:50,48.636,-131.167,352.61,374.11,8.45,1029.76,8.07,32.61,353.26,347.52,374.79,-27.27
93.059,04/02/00,01:25:20,48.648,-131.170,350.26,374.11,8.26,1029.82,7.76,32.65,351.00,343.49,374.79,-31.30
93.062,04/02/00,01:29:50,48.661,-131.173,349.75,374.11,8.43,1029.69,7.99,32.64,350.39,343.81,374.79,-30.98
93.074,04/02/00,01:46:21,48.707,-131.185,349.51,374.11,8.30,1029.40,7.85,32.65,350.08,343.26,374.79,-31.53
93.077,04/02/00,01:50:50,48.720,-131.188,347.66,374.11,8.30,1029.66,7.79,32.63,348.32,340.70,374.79,-34.09
93.080,04/02/00,01:55:20,48.732,-131.191,347.04,374.11,8.38,1029.40,7.90,32.63,347.60,340.42,374.79,-34.37
93.083,04/02/00,01:59:50,48.745,-131.195,346.90,374.11,8.56,1029.46,8.05,32.64,347.44,339.89,374.79,-34.90
93.095,04/02/00,02:16:24,48.760,-131.163,345.53,374.07,8.51,1029.39,8.06,32.62,346.04,339.31,374.62,-35.31
93.098,04/02/00,02:20:50,48.755,-131.145,345.53,374.07,8.47,1029.33,7.99,32.63,346.04,338.95,374.62,-35.66
93.101,04/02/00,02:25:20,48.751,-131.127,345.65,374.07,8.43,1029.34,7.97,32.65,346.17,339.37,374.62,-35.24
93.104,04/02/00,02:29:50,48.745,-131.108,345.86,374.07,8.68,1029.42,7.98,32.64,346.40,336.10,374.62,-38.52
93.116,04/02/00,02:46:21,48.766,-131.071,345.67,374.07,8.46,1029.33,8.00,32.64,346.18,339.28,374.62,-35.34
93.119,04/02/00,02:50:50,48.779,-131.075,345.69,374.07,8.48,1029.47,8.00,32.64,346.24,339.14,374.62,-35.48
93.122,04/02/00,02:55:20,48.791,-131.078,346.24,374.07,8.52,1029.40,8.04,32.64,346.76,339.59,374.62,-35.02
93.125,04/02/00,02:59:50,48.804,-131.082,346.51,374.07,8.46,1029.34,7.97,32.65,347.02,339.71,374.62,-34.90
93.136,04/02/00,03:16:24,48.851,-131.095,345.87,374.27,8.48,1029.18,8.00,32.63,346.32,339.21,374.77,-35.56
93.139,04/02/00,03:20:50,48.861,-131.087,345.48,374.27,8.48,1029.25,7.97,32.64,345.97,338.41,374.77,-36.36
93.143,04/02/00,03:25:20,48.870,-131.073,345.09,374.27,8.44,1029.17,7.92,32.64,345.56,337.85,374.77,-36.92
93.146,04/02/00,03:29:50,48.879,-131.058,344.57,374.27,8.47,1029.29,8.00,32.63,345.06,338.11,374.77,-36.66